SCP
0 0 0 0 0 0 0 0 0 0 0 0 0 0 0 0 0 0 0 0 0 0 0 0 0 0 0 0 0 0 0 0 0 0 0 0 0 0 0 0 0 0 0
0 0 0 0 0 0 0 0 0 0 0 0 0 0 0 0 0 0 0 0 0 0 0 0 0 0 0 0 0 0 0 0 0 0 0 0 0 0 0 0 0 0 0
0 0 0 0 0 0 0 0 0 0 0 0 0 0 0 0 0 0 0 0 0 0 0 0 0 0 0 0 0 0 0 0 0 0 0 0 0 0 0 0 0 0 0
0 0 0 0 0 0 0 0 0 0 0 0 0 0 0 0 0 0 0 0 0 0 0 0 0 0 0 0 0 0 0 0 0 0 0 0 0 0 0 0 0 0 0
0 0 0 0 0 0 0 0 0 0 0 0 0 0 0 0 0 0 0 0 0 0 0 0 0 0 0 0 0 0 0 0 0 0 0 0 0 0 0 0 0 0 0
0 0 0 0 0 0 0 0 0 0 0 0 0 0 0 0 0 0 0 0 0 0 0 0 0 0 0 0 0 0 0 0 0 0 0 0 0 0 0 0 0 0 0
0 0 0 0 0 0 0 0 0 0 0 0 0 0 0 0 0 0 0 0 0 0 0 0 0 0 0 0 0 0 0 0 0 0 0 0 0 0 0 0 0 0 0
0 0 0 0 0 0 0 0 0 0 0 0 0 0 0 0 0 0 0 0 0 0 0 0 0 0 0 0 0 0 0 0 0 0 0 0 0 0 0 0 0 0 0
0 0 0 0 0 0 0 0 0 0 0 0 0 0 0 0 0 0 0 0 0 0 0 0 0 0 0 0 0 0 0 0 0 0 0 0 0 0 0 0 0 0 0
0 0 0 0 0 0 0 0 0 0 0 0 0 0 0 0 0 0 0 0 0 0 0 0 0 0 0 0 0 0 0 0 0 0 0 0 0 0 0 0 0 0 0
0 0 0 0 0 0 0 0 0 0 0 0 0 0 0 0 0 0 0 0 0 0 0 0 0 0 0 0 0 0 0 0 0 0 0 0 0 0 0 0 0 0 0
0 0 0 0 0 0 0 0 0 0 0 0 0 0 0 0 0 0 0 0 0 0 0 0 0 0 0 0 0 0 0 0 0 0 0 0 0 0 0 0 0 0 0
0 0 0 0 0 0 0 0 0 0 0 0 0 0 0 0 0 0 0 0 0 0 0 0 0 0 0 0 0 0 0 0 0 0 0 0 0 0 0 0 0 0 0
0 0 0 0 0 0 0 0 0 0 0 0 0 0 0 0 0 0 0 0 0 0 0 0 0 0 0 0 0 0 0 0 0 0 0 0 0 0 0 0 0 0 0
0 0 0 0 0 0 0 0 0 0 0 0 0 0 0 0 0 0 0 0 0 0 0 0 0 0 0 0 0 0 0 0 0 0 0 0 0 0 0 0 0 0 0
0 0 0 0 0 0 0 0 0 0 0 0 0 0 0 0 0 0 0 0 0 0 0 0 0 0 0 0 0 0 0 0 0 0 0 0 0 0 0 0 0 0 0
0 0 0 0 0 0 0 0 0 0 0 0 0 0 0 0 0 0 0 0 0 0 0 0 0 0 0 0 0 0 0 0 0 0 0 0 0 0 0 0 0 0 0
0 0 0 0 0 0 0 0 0 0 0 0 0 0 0 0 0 0 0 0 0 0 0 0 0 0 0 0 0 0 0 0 0 0 0 0 0 0 0 0 0 0 0
0 0 0 0 0 0 0 0 0 0 0 0 0 0 0 0 0 0 0 0 0 0 0 0 0 0 0 0 0 0 0 0 0 0 0 0 0 0 0 0 0 0 0
0 0 0 0 0 0 0 0 0 0 0 0 0 0 0 0 0 0 0 0 0 0 0 0 0 0 0 0 0 0 0 0 0 0 0 0 0 0 0 0 0 0 0
0 0 0 0 0 0 0 0 0 0 0 0 0 0 0 0 0 0 0 0 0 0 0 0 0 0 0 0 0 0 0 0 0 0 0 0 0 0 0 0 0 0 0
0 0 0 0 0 0 0 0 0 0 0 0 0 0 0 0 0 0 0 0 0 0 0 0 0 0 0 0 0 0 0 0 0 0 0 0 0 0 0 0 0 0 0
0 0 0 0 0 0 0 0 0 0 0 0 0 0 0 0 0 0 0 0 0 0 0 0 0 0 0 0 0 0 0 0 0 0 0 0 0 0 0 0 0 0 0
0 0 0 0 0 0 0 0 0 0 0 0 0 0 0 0 0 0 0 0 0 0 0 0 0 0 0 0 0 0 0 0 0 0 0 0 0 0 0 0 0 0 0
0 0 0 0 0 0 0 0 0 0 0 0 0 0 0 0 0 0 0 0 0 0 0 0 0 0 0 0 0 0 0 0 0 0 0 0 0 0 0 0 0 0 0
0 0 0 0 0 0 0 0 0 0 0 0 0 0 0 0 0 0 0 0 0 0 0 0 0 0 0 0 0 0 0 0 0 0 0 0 0 0 0 0 0 0 0
Wind_Speed
14 14 14 14 14 13 12 13 13 12 12 14 14 14 14 14 14 13 12 14 13 12 10 11 10 9 6 5 5 4 3 2 3 3 3 3 4 4 3 4 5 6 5
14 14 15 14 14 14 14 13 13 13 13 13 13 14 14 14 14 15 15 15 15 15 13 12 12 8 9 7 6 5 4 3 3 4 3 4 5 4 5 5 5 5 6
13 14 15 15 16 16 15 14 14 13 13 12 13 14 15 15 14 14 15 15 15 15 15 14 13 12 11 8 8 6 5 4 3 3 3 3 3 3 5 5 6 6 6
14 15 16 17 16 16 14 14 14 14 14 15 15 14 14 14 14 13 13 13 13 13 13 13 13 13 13 11 8 8 7 6 5 4 4 4 4 4 4 5 5 5 6
15 16 17 15 15 14 14 14 13 13 14 14 13 13 12 12 13 14 14 14 14 13 12 11 11 11 12 11 8 9 9 7 6 5 5 4 4 4 4 4 5 6 8
16 16 14 13 13 13 13 12 12 13 13 12 13 14 14 12 19 23 16 13 13 13 13 11 10 10 10 15 14 13 13 10 9 7 6 7 7 6 5 5 5 5 6
15 13 12 12 13 13 12 13 14 14 13 13 14 14 15 17 23 24 20 12 12 12 12 11 9 8 10 9 12 15 15 16 14 9 9 9 8 7 6 7 7 7 8
12 11 11 12 12 12 13 14 14 12 12 13 13 13 12 14 22 24 21 12 10 11 11 11 11 11 11 11 9 10 11 13 15 13 11 11 9 6 7 7 8 9 10
11 12 12 11 11 12 13 14 12 10 11 10 10 11 10 11 20 22 21 9 9 10 9 10 10 10 15 16 11 11 11 11 15 19 19 17 16 15 11 7 7 7 8
10 10 10 10 10 12 12 10 8 8 8 8 7 8 9 8 17 22 22 9 9 8 8 9 11 12 16 18 13 12 13 13 10 9 13 16 15 15 17 12 9 8 8
5 6 7 8 9 9 8 7 7 7 7 7 7 7 8 9 16 23 24 10 10 9 9 8 10 18 19 21 19 14 17 13 9 9 9 9 9 8 9 9 9 9 9
5 6 6 7 7 7 8 8 8 8 8 8 7 7 7 8 11 19 25 20 14 10 10 9 10 18 21 22 19 19 22 17 9 9 9 9 9 8 8 8 10 10 10
5 5 6 6 6 7 8 8 8 7 7 7 7 7 7 7 10 19 22 23 21 12 9 12 14 17 18 17 21 22 16 11 10 10 10 10 8 7 6 6 8 8 9
7 6 6 6 6 6 5 6 6 7 7 6 7 7 7 7 8 9 10 12 15 14 10 10 15 17 16 13 10 12 10 9 9 10 9 7 5 5 6 6 6 6 6
7 6 6 5 6 5 4 4 5 4 5 6 6 6 7 8 10 14 10 9 9 9 7 6 6 7 8 8 7 7 7 7 8 8 7 6 5 5 6 5 5 6 6
6 5 4 4 4 4 5 4 4 3 5 6 5 5 4 6 9 14 16 15 15 13 8 7 8 8 8 8 7 6 6 6 7 6 6 6 6 6 6 5 6 6 7
6 5 4 4 4 4 4 4 4 3 4 3 2 3 4 4 6 9 11 13 13 13 9 7 7 7 7 6 6 6 6 5 5 5 6 6 5 5 5 5 6 6 6
6 5 4 3 3 3 3 3 3 3 3 1 2 3 1 2 4 5 7 8 7 8 6 6 6 5 5 5 5 5 5 4 5 5 5 5 5 5 5 6 6 6 6
5 4 4 4 3 3 3 3 2 2 2 1 1 2 4 2 1 1 2 4 4 4 4 4 3 3 3 4 4 4 4 4 5 5 5 6 5 5 5 5 5 6 6
6 7 5 4 4 4 3 3 3 2 2 1 1 1 2 1 0 1 1 1 1 2 2 3 3 3 3 3 3 4 4 4 5 5 5 5 5 5 5 6 5 5 5
5 6 7 5 5 4 4 3 3 2 2 1 1 1 2 1 0 0 1 1 1 1 1 2 2 2 3 3 3 4 5 5 4 4 4 4 4 4 4 5 5 5 5
5 5 5 5 4 4 4 3 3 2 2 2 1 2 3 2 1 1 1 1 1 1 1 2 2 2 2 3 3 4 5 5 5 5 4 4 4 4 4 5 5 5 5
5 5 5 5 4 4 4 3 3 2 2 1 1 1 1 1 1 1 1 1 1 2 2 2 3 2 2 3 3 4 5 5 4 5 5 5 5 5 5 6 6 6 6
5 6 5 4 4 3 3 3 2 2 2 1 1 1 1 2 2 2 2 2 2 3 3 3 4 5 6 4 4 4 4 4 4 4 6 6 5 5 5 5 6 6 6
5 5 4 3 3 2 2 2 2 2 2 2 2 2 3 3 3 3 3 3 4 4 5 5 4 5 7 8 7 6 7 8 7 5 5 6 7 6 6 6 6 6 6
4 3 3 2 1 1 1 1 2 2 3 3 3 4 4 4 4 4 4 4 4 5 5 5 7 8 8 8 9 10 10 10 10 10 7 6 7 7 7 6 7 6 6
Wind_Direction
209 208 209 209 207 205 203 201 198 193 187 185 185 181 180 178 178 175 171 170 169 163 163 161 155 152 149 147 144 143 141 147 157 148 169 187 222 239 247 271 291 296 298
207 206 208 208 205 205 205 202 196 192 189 187 185 183 183 180 179 177 172 174 172 169 167 164 160 159 159 158 158 161 159 163 174 178 182 201 227 247 268 278 281 281 283
205 205 207 207 206 207 205 200 195 191 187 185 186 187 186 182 181 181 176 176 176 173 171 171 167 167 169 169 170 167 163 167 184 191 198 208 231 240 270 270 271 272 273
205 207 210 209 207 207 204 199 195 191 188 189 190 191 188 184 181 177 175 176 175 174 174 175 173 177 176 174 175 174 169 173 182 202 217 226 237 237 253 269 275 270 277
207 211 213 210 207 205 202 198 194 193 193 191 190 190 187 185 184 179 177 176 175 173 174 178 180 182 183 178 176 177 175 181 186 205 219 228 233 225 234 246 269 286 283
211 215 212 205 202 202 199 193 191 194 193 190 192 191 191 193 190 186 178 177 176 175 176 179 180 182 187 193 194 191 188 188 194 202 215 227 237 233 235 240 262 284 287
213 213 207 201 200 200 194 192 195 196 193 195 197 197 198 199 192 189 184 175 178 181 179 177 179 186 187 196 206 209 211 216 213 210 225 231 237 229 228 240 245 255 266
211 208 202 198 199 197 195 198 199 197 197 199 200 201 200 201 195 190 181 177 181 184 184 184 185 184 191 193 200 212 220 224 225 226 234 240 241 236 229 244 260 267 271
210 208 202 196 194 193 197 200 198 195 198 200 196 194 194 195 195 190 181 178 184 187 187 189 189 192 199 199 202 217 229 237 239 235 239 245 246 244 237 241 245 252 269
209 205 196 189 188 192 196 195 189 187 192 189 190 188 186 184 193 192 185 180 187 188 189 194 197 201 204 205 208 217 231 236 229 235 242 248 249 248 242 235 237 244 259
185 177 178 180 182 183 178 173 168 172 174 178 178 176 179 183 197 197 194 189 189 191 196 200 208 212 216 218 219 223 234 236 230 230 235 239 240 239 237 233 231 235 246
148 155 160 162 166 160 159 160 163 166 171 176 178 179 183 185 197 205 204 201 196 200 208 208 212 217 222 227 229 232 237 238 233 231 233 235 234 233 231 228 230 234 243
122 127 134 138 143 150 155 157 160 168 177 182 185 191 189 190 204 209 210 210 209 211 218 219 219 224 230 234 236 238 238 234 231 233 236 238 235 232 226 223 227 234 244
118 121 127 132 136 140 148 156 165 174 182 185 191 195 192 192 197 201 205 211 217 222 226 226 230 234 235 231 233 239 234 233 233 238 243 243 232 217 214 214 221 221 239
117 119 124 126 133 139 143 155 168 176 188 188 195 197 197 201 203 199 196 203 206 214 214 222 226 226 228 230 229 228 228 229 233 238 241 238 226 218 218 210 215 217 233
115 118 120 125 128 132 137 131 138 140 174 195 197 198 208 213 205 205 210 215 216 215 214 223 227 230 232 233 232 229 226 228 230 232 233 230 226 222 221 213 213 222 238
111 113 112 117 123 130 138 143 140 119 114 118 164 194 204 204 210 212 214 217 219 216 222 226 229 230 231 231 230 230 231 227 223 225 227 227 225 224 224 223 222 231 241
85 84 93 104 114 122 129 136 146 155 155 115 40 36 18 218 213 214 214 213 218 217 224 229 228 226 225 226 228 229 228 221 216 220 222 221 221 223 225 226 226 232 242
74 76 75 79 82 89 97 106 111 121 125 115 82 35 18 17 37 13 228 222 222 221 220 224 224 219 217 218 220 221 223 222 220 220 221 218 215 218 223 224 228 228 234
66 65 70 77 79 79 81 91 96 101 106 105 83 26 2 13 49 14 357 264 242 237 230 223 218 218 215 214 213 213 218 220 216 218 219 215 212 215 221 221 222 226 228
70 69 66 71 69 69 71 73 77 86 92 88 59 8 12 30 31 345 311 308 293 271 259 250 239 228 222 217 213 215 219 221 217 215 215 212 207 211 219 221 220 222 231
64 66 62 65 65 64 64 64 67 72 80 82 48 10 26 42 24 302 289 294 305 299 291 268 251 241 234 226 221 220 221 222 216 213 214 209 205 208 210 213 217 221 222
64 70 68 62 62 65 62 58 58 59 59 49 26 9 7 346 300 274 268 268 264 260 258 253 250 243 238 239 240 234 231 227 220 210 207 206 205 207 207 213 214 220 224
59 64 66 63 57 54 53 49 43 37 25 0 332 314 300 289 279 273 271 266 263 258 250 245 248 248 244 241 238 236 240 240 227 217 212 211 211 210 209 213 218 220 225
58 60 59 56 52 47 39 27 11 352 327 305 296 288 283 278 273 270 264 258 257 254 250 246 245 247 245 241 240 239 241 240 228 211 204 210 214 212 211 214 215 216 218
56 56 54 48 38 20 352 327 311 301 292 287 283 279 277 274 272 270 266 258 255 253 251 245 241 242 246 245 243 240 238 236 229 218 208 209 211 211 206 211 212 214 216